DW8572 Weather Reports


time (UTC)temp
C
wind
direction
speed
KPH
gust
KPH
rain 1hr
cm
rain 24hr
cm
rain mn
cm
humidity
%
barometer
mb
20260504120107 11 209 0.0 0.0 0.00 0.00 0.00 78 1006.2
20260504081521 7 173 0.0 0.0 0.00 0.00 0.00 84 1006.7
20260504050133 7 171 0.0 0.0 0.00 0.00 0.00 83 1009.1
20260504044558 8 171 0.0 0.0 0.00 0.00 0.00 83 1009.1
20260504043059 8 171 0.0 0.0 0.00 0.00 0.00 81 1009.2
20260504041550 8 171 0.0 0.0 0.00 0.00 0.00 81 1009.4
20260504040049 8 171 0.0 0.0 0.00 0.00 0.00 81 1009.3
20260504034552 8 171 0.0 0.0 0.00 0.00 0.00 80 1009.5
20260504033048 8 173 0.0 0.0 0.00 0.00 0.00 80 1009.6
20260504031603 8 161 0.0 0.0 0.00 0.00 0.00 81 1009.8
20260504030044 8 161 0.0 0.0 0.00 0.00 0.00 80 1010.0
20260504024543 9 155 0.0 0.0 0.00 0.00 0.00 79 1010.2
20260504023041 9 154 0.0 0.0 0.00 0.00 0.00 79 1010.3
20260504021540 9 154 0.0 0.0 0.00 0.00 0.00 79 1010.2
20260504020041 9 154 0.0 0.0 0.00 0.00 0.00 79 1010.4
20260504014539 9 155 0.0 0.0 0.00 0.00 0.00 79 1010.3
20260504013039 9 155 0.0 0.0 0.00 0.00 0.00 80 1010.3
20260504011541 9 155 0.0 0.0 0.00 0.00 0.00 79 1010.3
20260504010043 9 155 0.0 0.0 0.00 0.00 0.00 79 1010.5
20260504004536 9 156 0.0 0.0 0.00 0.00 0.00 78 1010.5
20260504003041 10 161 0.0 0.0 0.00 0.00 0.00 77 1010.7
20260504001537 10 169 0.0 0.0 0.00 0.00 0.00 76 1010.8
20260504000034 10 182 0.0 0.0 0.00 0.00 0.00 75 1010.9
20260503234534 10 181 0.0 0.0 0.00 0.00 0.00 75 1010.9
20260503233030 10 161 0.0 0.0 0.00 0.00 0.00 76 1011.1
20260503231543 10 172 0.0 0.0 0.00 0.00 0.00 77 1011.2
20260503230029 10 186 0.0 0.0 0.00 0.00 0.00 77 1011.3
20260503224526 10 190 0.0 0.0 0.00 0.00 0.00 75 1011.5
20260503223026 10 184 0.0 0.0 0.00 0.00 0.00 75 1011.8
20260503221523 10 188 0.0 0.0 0.00 0.00 0.00 74 1012.0
20260503220031 10 178 0.0 0.0 0.00 0.00 0.00 73 1012.0
20260503214519 11 213 0.0 0.0 0.00 0.00 0.00 71 1012.3
20260503213019 11 207 0.0 0.0 0.00 0.00 0.00 69 1012.5
20260503211523 11 197 0.0 0.0 0.00 0.00 0.00 68 1012.8
20260503210019 11 223 0.0 0.0 0.00 0.00 0.00 67 1012.9
20260503204518 12 201 0.0 0.0 0.00 0.00 0.00 64 1012.9
20260503203023 13 201 0.0 0.0 0.00 0.00 0.00 59 1012.8
20260503201523 15 215 0.0 0.0 0.00 0.00 0.00 51 1012.5
20260503200016 15 223 0.0 0.0 0.00 0.00 0.00 49 1012.6
20260503194520 15 200 0.0 0.0 0.00 0.00 0.00 49 1012.7
20260503193012 15 218 0.0 0.0 0.00 0.00 0.00 48 1013.0
20260503191511 15 199 0.0 0.0 0.00 0.00 0.00 47 1013.1
20260503190009 15 209 0.0 0.0 0.00 0.00 0.00 48 1013.2
20260503184508 15 221 0.0 0.0 0.00 0.00 0.00 47 1013.3
20260503183006 15 185 0.0 0.0 0.00 0.00 0.00 45 1013.6
20260503181506 16 231 0.0 0.0 0.00 0.00 0.00 44 1014.0
20260503180005 16 221 0.0 0.0 0.00 0.00 0.00 43 1014.0
20260503174616 15 204 0.0 0.0 0.00 0.00 0.00 44 1014.2
20260503173130 16 204 0.0 0.0 0.00 0.00 0.00 44 1014.4
20260503171554 15 205 0.0 0.0 0.00 0.00 0.00 43 1014.7